Regional Weather Roundup
Issued by NWS

Home | Current Version | Previous Version | Text Only | Print | Product List | Glossary On
Versions: 1 2 3 4 5 6 7 8 9 10 11 12 13 14 15 16 17 18 19 20 21 22 23 24 25 26 27 28 29 30 31 32 33 34 35 36 37 38 39 40 41 42 43 44 45 46 47 48 49 50
000
ASUS43 KDMX 240301
RWRIA

WEATHER ROUNDUP FOR IOWA
NATIONAL WEATHER SERVICE DES MOINES IA
900 PM CST THU FEB 23 2017

NOTE: "FAIR" INDICATES FEW OR NO CLOUDS BELOW 12,000 FEET WITH NO
SIGNIFICANT WEATHER AND/OR OBSTRUCTIONS TO VISIBILITY.

* - THESE STATIONS ARE NOT NWS STATIONS...THUS NOT UNDER NWS
QUALITY CONTROL.  THEY ALSO DO NOT REPORT WEATHER SUCH
AS PRECIPITATION OR FOG.

IAZ001>003-012>014-020>022-031>034-043>046-240400-
   NORTHWEST IOWA

CITY           SKY/WX    TMP DP  RH WIND       PRES   REMARKS
CARROLL *      RAIN      34  34 100 NE26      29.64F WCI  21
CHEROKEE *     SNOW      31  31 100 NE23G29   29.72R VSB 1/2 WCI  17
DENISON *      CLOUDY    34  32  93 NE29G36   29.58F FOG     WCI  20
LE MARS *      LGT SNOW  30  28  93 NE18G33   29.76R WCI  18
ORANGE CITY *  LGT SNOW  28  28 100 NE18G28   29.74F WCI  16
SHELDON *      SNOW      28  28 100 NE24G35   29.74F VSB 1/2 WCI  14
SIOUX CITY     SNOW      33  29  85 NE21G29   29.71R VSB 1/4 WCI  21
SPENCER        LGT SNOW  30  28  92 NE25G36   29.76F VSB 3/4 WCI  16
STORM LAKE *   MIX PCPN  30  30 100 NE31G43   29.68F VSB 1/4 WCI  15
$$

IAZ055>058-069>071-079>083-090>094-240400-
   SOUTHWEST IOWA

CITY           SKY/WX    TMP DP  RH WIND       PRES   REMARKS
ATLANTIC *     CLOUDY    37  37 100 NE16G24   29.56F FOG     WCI  28
CLARINDA *     CLOUDY    43  41  93 NE15G24   29.53F
COUNCIL BLFS * CLOUDY    36  36 100 NE21G28   29.55F WCI  24
CRESTON *      CLOUDY    41  41 100 NE20G28   29.53F FOG
HARLAN  *      CLOUDY    36  36 100 NE24G30   29.61F WCI  24
LAMONI         CLOUDY    44  43  96 NE17G25   29.48F FOG
RED OAK *      CLOUDY    41  39  93 NE18G29   29.53F
SHENANDOAH *   MIX PCPN  41  39  93 NE16G24   29.51F
$$

IAZ047>049-059>061-072>074-084-240400-
   CENTRAL IOWA

CITY           SKY/WX    TMP DP  RH WIND       PRES   REMARKS
AMES           CLOUDY    39  39 100 NE14G22   29.62R FOG     WCI  31
ANKENY *       CLOUDY    41  39  93 NE15G22   29.60F FOG
BOONE *        MIX PCPN  37  37 100 NE21G28   29.61R WCI  27
CHARITON *     CLOUDY    43  43 100 NE13G18   29.54S FOG
DES MOINES     DRIZZLE   42  40  92 E15G26    29.58F FOG
GRINNELL*      LGT RAIN  40  39  95 NE20G28   29.60S WCI  31
KNOXVILLE *    CLOUDY    43  41  93 E17G25    29.54F FOG
MARSHALLTOWN   CLOUDY    39  37  92 NE25G32   29.61F FOG     WCI  28
NEWTON *       CLOUDY    41  39  93 NE21G30   29.58F FOG
PELLA *        LGT RAIN  42  42  98 E7G20     29.59S
PERRY *        DRIZZLE   38  37  96 NE15G21   29.63R WCI  29
$$

IAZ004>006-015-016-023>025-035-036-240400-
   NORTH CENTRAL IOWA

CITY           SKY/WX    TMP DP  RH WIND       PRES   REMARKS
ALGONA *       MIX PCPN  32  32 100 NE30G41   29.71F VSB 1/4 WCI  18
CLARION *      CLOUDY    34  34 100 NE28G37   29.68R FOG     WCI  20
ESTHERVILLE    LGT SNOW  28  28 100 N24       29.77S VSB 3/4 WCI  14
FORT DODGE *   CLOUDY    34  28  80 NE21G30   29.68R WCI  22
MASON CITY     LGT SNOW  33  32  96 NE24G35   29.75R FOG     WCI  20
FOREST CITY *  LGT SNOW  32  32 100 NE15G22   29.76R WCI  22
WEBSTER CITY * LGT RAIN  34  32  93 NE20G29   29.64R WCI  22
IOWA FALLS *   LGT RAIN  36  34  94 NE18G26   29.62F WCI  25
$$

IAZ007>011-017>019-026>030-037>042-050>054-066-240400-
   NORTHEAST IOWA

CITY           SKY/WX    TMP DP  RH WIND       PRES   REMARKS
CEDAR RAPIDS   LGT RAIN  40  40 100 NE26G32   29.62F FOG     WCI  29
CHARLES CITY * LGT SNOW  34  34 100 NE21G29   29.71F WCI  22
CLINTON *      CLOUDY    38  36  92 E21       29.69S WCI  28
DECORAH *      MIX PCPN  36  34  93 NE12      29.77R WCI  27
DUBUQUE        RAIN      37  36  96 NE24G33   29.69F FOG     WCI  26
MONTICELLO *   LGT RAIN  39  37  93 E17G25    29.67F WCI  30
OELWEIN *      LGT RAIN  36  36 100 NE26      29.65F WCI  23
WATERLOO       LGT RAIN  37  34  89 NE21      29.65F WCI  26
$$

IAZ064-065-067-068-078-240400-
   EAST CENTRAL IOWA

CITY           SKY/WX    TMP DP  RH WIND       PRES   REMARKS
DAVENPORT      CLOUDY    39  36  89 E24       29.64F WCI  28
IOWA CITY      CLOUDY    42  38  85 E14G26    29.63F
MUSCATINE *    CLOUDY    45  41  87 E14       29.63S
QUAD CITIES    CLOUDY    43  38  82 E18       29.64S
$$

IAZ062-063-075>077-085>089-095>099-240400-
   SOUTHEAST IOWA

CITY           SKY/WX    TMP DP  RH WIND       PRES   REMARKS
BURLINGTON     CLOUDY    47  45  93 E14       29.54F
FAIRFIELD *    CLOUDY    46  45  93 NE17G26   29.56S FOG
KEOKUK *       CLOUDY    52  48  87 E14       29.52S
CENTERVILLE *  LGT RAIN  45  45 100 NE9G17    29.54S
OTTUMWA        CLOUDY    45  45 100 NE15G25   29.55F FOG
WASHINGTON *   CLOUDY    43  43 100 NE21      29.60R
$$

ABBREVIATIONS USED IN REMARKS
   TC - TEMPERATURES IN CELSIUS
  WCI - WIND CHILL INDEX
   HX - HEAT INDEX
  VSB - VISIBILITY
$$





USA.gov is the U.S. government's official web portal to all federal, state and local government web resources and services.